Regional Weather Roundup
Issued by NWS

Home | Current Version | Previous Version | Text Only | Print | Product List | Glossary On
Versions: 1 2 3 4 5 6 7 8 9 10 11 12 13 14 15 16 17 18 19 20 21 22 23 24 25 26 27 28 29 30 31 32 33 34 35 36 37 38 39 40 41 42 43 44 45 46 47 48 49 50
600
ASUS46 KPQR 221610
RWROR

OREGON REGIONAL WEATHER ROUNDUP
NATIONAL WEATHER SERVICE PORTLAND OR
900 AM PDT SUN OCT 22 2017

NOTE: "FAIR" INDICATES FEW OR NO CLOUDS BELOW 12,000 FEET WITH
NO SIGNIFICANT WEATHER AND/OR OBSTRUCTIONS TO VISIBILITY.

ORZ001>013-221700-
NORTHWEST OREGON


CITY           SKY/WX    TMP DP  RH WIND       PRES   REMARKS
ASTORIA        CLOUDY    57  52  83 SW8       30.13R
NEWPORT        CLOUDY    55  55 100 S13G25    30.18R FOG
PORTLAND       PTSUNNY   56  52  86 S15       30.17R
VANCOUVER WA   PTSUNNY   57  54  89 S6        30.16R
SCAPPOOSE      PTSUNNY   50  49  96 CALM      30.16R
HILLSBORO      NOT AVBL
AURORA         CLOUDY    55  55 100 S12       30.20R
MCMINNVILLE    CLOUDY    55  53  93 S13       30.19R
SALEM          CLOUDY    56  52  86 S7        30.20R
CORVALLIS      CLOUDY    56  52  86 S10       30.23R
EUGENE         LGT RAIN  55  55 100 S7        30.24R
$$

ORZ021-028-221700-
SOUTHWEST OREGON


CITY           SKY/WX    TMP DP  RH WIND       PRES   REMARKS
NORTH BEND     RAIN      58  57  97 SW9       30.30R FOG
BROOKINGS      CLOUDY    57  53  86 SE8       30.35R
ROSEBURG       HVY RAIN  57  56  96 CALM      30.27R VSB 1
SEXTON SUMMIT  FOG       47  46  97 S16G25    30.30R VSB<1/4
GRANTS PASS    CLOUDY    59  52  77 S5        30.35R
MEDFORD        CLOUDY    51  50  96 CALM      30.30R FOG
$$

ORZ014>016-041-221700-
COLUMBIA GORGE


CITY           SKY/WX    TMP DP  RH WIND       PRES   REMARKS
TROUTDALE      CLOUDY    58  51  78 MISG      30.17R
HOOD RIVER     CLOUDY    54  50  87 CALM      30.12R
THE DALLES     CLOUDY    57  51  80 NE3       30.11R
$$

ORZ029>031-041-044-049-050-061>064-502-503-505>511-221700-
EASTERN OREGON


CITY           SKY/WX    TMP DP  RH WIND       PRES   REMARKS
MADRAS         DRIZZLE  N/A N/A N/A SW12      30.17R
REDMOND        LGT RAIN  52  46  80 N6        30.18R
BEND           CLOUDY    52  45  76 S10G17    30.19R
PRINEVILLE     CLOUDY    54  45  71 W8        30.19R
KLAMATH FALLS  PTSUNNY   48  40  73 S8        30.34R
LAKEVIEW       CLOUDY    45  41  87 S12       30.38R
HERMISTON      PTSUNNY   56  49  77 SW18G28   30.06R
PENDLETON      LGT RAIN  53  46  77 W31G39    30.08R
JOHN DAY       CLOUDY    52  44  74 S10       30.18R
MEACHAM        LGT RAIN  50  44  80 MISG      30.11R
LA GRANDE      LGT RAIN  50  45  83 S5        30.12R
BAKER CITY     CLOUDY    53  42  66 S24G33    30.12R
BURNS          CLOUDY    49  42  77 S13       30.25R
ROME             N/A     57  35  43 SW17      30.27R
ONTARIO        CLOUDY    47  44  90 N5        30.23R
$$




USA.gov is the U.S. government's official web portal to all federal, state and local government web resources and services.